Orbital Elements at Epoch 2459200.5 (2020-Dec-17.0) TDB
Reference: JPL 19 (heliocentric ecliptic J2000)
Element | Value | Uncertainty (1-sigma) | Units |
e | .177153950067826 | 4.1714e-08 | |
a | 3.152090441501712 | 2.5504e-08 | au |
q | 2.593685168818646 | 1.3023e-07 | au |
i | 17.05656599502578 | 5.3011e-06 | deg |
node | 64.41937963483193 | 1.5911e-05 | deg |
peri | 110.6193462599811 | 2.2426e-05 | deg |
M | 151.8865579065253 | 1.5224e-05 | deg |
tp | 2458338.091017619249 (2018-Aug-07.59101762) | 8.3787e-05 | TDB |
period | 2044.073142062639 5.60 | 2.4809e-05 6.792e-08 | d yr |
n | .1761189424154999 | 2.1375e-09 | deg/d |
Q | 3.710495714184779 | 3.0022e-08 | au |
|
| | Orbit Determination Parameters
Additional Information
|